FW7746 Weather Reports


time (UTC)temp
F
wind
direction
speed
knots
gust
knots
rain 1hr
in
rain 24hr
in
rain mn
in
humidity
%
barometer
mb
20260905032103 49 315 0.0 0.0 0.07 0.12 0.12 91 1015.6
20260905031603 49 315 0.0 0.0 0.07 0.12 0.12 91 1015.4
20260905031104 49 315 0.0 0.0 0.06 0.11 0.11 91 1015.4
20260905030604 49 315 0.0 0.0 0.06 0.11 0.11 91 1015.4
20260905030104 49 315 0.0 0.0 0.06 0.11 0.11 91 1015.5
20260905025604 49 315 0.0 0.0 0.05 0.10 0.10 90 1015.4
20260905025103 49 315 0.0 0.0 0.05 0.10 0.10 90 1015.4
20260905024603 50 315 0.0 0.0 0.04 0.09 0.09 90 1015.5
20260905024103 50 315 0.0 0.0 0.04 0.09 0.09 89 1015.5
20260905023603 50 315 0.0 0.0 0.03 0.08 0.08 89 1015.4
20260905022103 51 315 0.0 0.0 0.00 0.05 0.05 85 1015.3
20260905021603 51 315 0.0 0.0 0.00 0.05 0.05 85 1015.1
20260905021103 51 315 0.0 0.0 0.00 0.05 0.05 85 1014.9
20260905020604 51 315 0.0 0.0 0.00 0.05 0.05 82 1014.9
20260905020105 51 315 0.0 0.0 0.00 0.05 0.05 82 1014.8
20260905015603 52 315 0.0 2.6 0.00 0.05 0.05 81 1014.8
20260905015103 52 337 0.0 0.0 0.00 0.05 0.05 81 1014.8
20260905014603 52 337 0.0 2.6 0.00 0.05 0.05 81 1014.8
20260905014103 52 336 0.0 0.9 0.00 0.05 0.05 80 1014.7
20260905013603 52 342 0.0 1.7 0.00 0.05 0.05 79 1014.6
20260905012603 52 342 0.0 0.0 0.00 0.05 0.05 77 1014.6
20260905012103 52 342 0.0 0.0 0.00 0.05 0.05 76 1014.4
20260905011603 52 342 0.0 0.0 0.00 0.05 0.05 76 1014.4
20260905011103 52 342 0.0 0.0 0.00 0.05 0.05 74 1014.3
20260905010603 52 342 0.0 0.9 0.00 0.05 0.05 74 1014.2
20260905010103 53 62 0.0 1.7 0.00 0.05 0.05 75 1014.1
20260905005603 53 99 0.0 0.9 0.00 0.05 0.05 74 1014.1
20260905005104 53 101 0.0 2.6 0.00 0.05 0.05 73 1014.2
20260905004604 54 78 0.9 2.6 0.00 0.05 0.05 73 1014.1
20260905004103 54 84 0.0 2.6 0.00 0.05 0.05 71 1013.9
20260905003603 55 82 0.0 0.0 0.00 0.05 0.05 68 1013.8
20260905003103 56 82 0.0 2.6 0.00 0.05 0.05 63 1013.8
20260905002603 57 153 0.0 0.0 0.00 0.05 0.05 59 1013.7
20260905002103 57 153 0.0 0.0 0.00 0.05 0.05 58 1013.5
20260905001604 58 149 0.0 0.9 0.00 0.05 0.05 57 1013.3
20260905001104 58 148 0.0 0.0 0.00 0.05 0.05 55 1013.3
20260905000603 58 146 0.0 0.0 0.00 0.05 0.05 58 1013.3
20260905000104 59 144 0.0 1.7 0.00 0.05 0.05 55 1013.4
20260904235604 59 241 0.0 2.6 0.00 0.05 0.05 56 1013.4
20260904235103 59 237 0.9 2.6 0.00 0.05 0.05 57 1013.4
20260904234603 59 158 0.0 1.7 0.00 0.05 0.05 58 1013.3
20260904234103 59 136 0.0 1.7 0.00 0.05 0.05 62 1013.3
20260904233603 58 141 1.7 7.8 0.00 0.05 0.05 61 1013.3
20260904233103 58 229 0.0 1.7 0.00 0.05 0.05 64 1013.2
20260904232604 57 170 0.0 0.9 0.00 0.05 0.05 65 1013.2
20260904232103 57 170 0.0 2.6 0.00 0.05 0.05 65 1013.2
20260904231604 58 187 0.9 2.6 0.00 0.05 0.05 64 1013.3
20260904231103 58 193 0.0 0.9 0.00 0.05 0.05 64 1013.2
20260904230104 56 200 0.0 0.0 0.02 0.05 0.05 71 1013.1
20260904225604 56 200 0.0 0.0 0.04 0.05 0.05 68 1013.1
20260904225103 56 200 0.0 0.0 0.04 0.05 0.05 72 1013.1
20260904224603 55 200 0.0 1.7 0.05 0.05 0.05 72 1013.1
20260904223603 54 204 0.0 2.6 0.05 0.05 0.05 70 1013.1
20260904223103 54 237 0.0 0.0 0.05 0.05 0.05 79 1013.2
20260904222603 54 238 0.0 1.7 0.05 0.05 0.05 79 1013.1
20260904222103 52 236 0.0 2.6 0.05 0.05 0.05 79 1013.2
20260904221603 51 237 0.0 0.0 0.05 0.05 0.05 87 1013.3
20260904221103 49 237 0.0 0.0 0.05 0.05 0.05 82 1013.3
20260904220603 49 234 0.0 0.0 0.04 0.04 0.04 82 1013.7
20260904220104 50 194 0.0 2.6 0.03 0.03 0.03 82 1014.2
20260904215603 51 139 0.9 2.6 0.01 0.01 0.01 76 1014.4
20260904215103 53 225 2.6 10.4 0.01 0.01 0.01 71 1014.0
20260904214604 55 242 0.9 8.7 0.00 0.00 0.00 62 1013.7
20260904214103 57 188 0.0 2.6 0.00 0.00 0.00 59 1013.3
20260904213603 57 150 0.0 0.9 0.00 0.00 0.00 58 1013.2
20260904212603 58 178 0.0 2.6 0.00 0.00 0.00 51 1012.8
20260904211603 60 206 0.0 0.9 0.00 0.00 0.00 50 1012.8
20260904210603 60 241 0.0 2.6 0.00 0.00 0.00 51 1012.7
20260904210103 60 137 0.0 1.7 0.00 0.00 0.00 50 1012.8
20260904205603 60 139 0.0 2.6 0.00 0.00 0.00 49 1012.7
20260904204603 61 127 0.0 2.6 0.00 0.00 0.00 51 1012.8
20260904203605 60 138 0.0 2.6 0.00 0.00 0.00 54 1012.7
20260904203103 59 151 0.0 2.6 0.00 0.00 0.00 54 1012.8
20260904202603 59 91 0.0 2.6 0.00 0.00 0.00 55 1012.9
20260904202104 58 202 0.0 0.9 0.00 0.00 0.00 55 1013.0
20260904201603 57 251 0.9 5.2 0.00 0.00 0.00 55 1013.0
20260904201103 56 176 0.0 0.9 0.00 0.00 0.00 58 1013.1
20260904200603 56 175 0.9 4.3 0.00 0.00 0.00 58 1013.0
20260904200104 55 87 0.0 2.6 0.00 0.00 0.00 57 1013.1
20260904195603 57 133 0.0 5.2 0.00 0.00 0.00 56 1013.2
20260904194604 55 130 0.0 0.0 0.00 0.00 0.00 62 1013.4
20260904194103 54 123 0.0 0.0 0.00 0.00 0.00 62 1013.5
20260904193603 54 170 0.0 0.9 0.00 0.00 0.00 61 1013.7
20260904192603 54 89 0.0 0.9 0.00 0.00 0.00 61 1013.7
20260904192104 53 209 0.0 2.6 0.00 0.00 0.00 62 1013.8
20260904191603 52 233 0.0 2.6 0.00 0.00 0.00 63 1013.9
20260904191103 53 163 0.9 4.3 0.00 0.00 0.00 63 1014.0
20260904190603 52 138 0.0 2.6 0.00 0.00 0.00 63 1014.0
20260904190104 52 199 0.0 2.6 0.00 0.00 0.00 65 1014.0
20260904185103 51 204 0.0 2.6 0.00 0.00 0.00 65 1014.2
20260904184603 50 118 0.9 2.6 0.00 0.00 0.00 66 1014.1
20260904184104 50 183 0.0 1.7 0.00 0.00 0.00 66 1014.1
20260904183603 50 138 0.0 0.0 0.00 0.00 0.00 68 1014.1
20260904183103 49 181 0.0 2.6 0.00 0.00 0.00 68 1014.0
20260904182104 49 211 0.9 7.8 0.00 0.00 0.00 68 1014.0
20260904181603 50 243 0.9 6.1 0.00 0.00 0.00 68 1013.9
20260904181103 50 187 0.9 4.3 0.00 0.00 0.00 69 1013.8
20260904180104 50 141 0.0 2.6 0.00 0.00 0.00 68 1013.7
20260904175603 50 184 0.0 0.9 0.00 0.00 0.00 69 1013.6
20260904175103 50 255 0.9 5.2 0.00 0.00 0.00 68 1013.5
20260904174603 50 153 0.0 4.3 0.00 0.00 0.00 68 1013.5
20260904174103 50 214 0.0 2.6 0.00 0.00 0.00 68 1013.4
20260904173103 50 217 0.0 2.6 0.00 0.00 0.00 67 1013.3
20260904172603 50 191 0.0 2.6 0.00 0.00 0.00 67 1013.3
20260904172103 50 258 0.0 2.6 0.00 0.00 0.00 68 1013.2
20260904171603 50 135 0.0 0.0 0.00 0.00 0.00 69 1013.1
20260904171103 50 134 0.0 2.6 0.00 0.00 0.00 69 1013.1
20260904170603 50 135 0.0 0.9 0.00 0.00 0.00 69 1013.1
20260904165603 49 161 0.0 2.6 0.00 0.00 0.00 69 1013.1
20260904165104 49 183 0.0 1.7 0.00 0.00 0.00 69 1013.1
20260904164604 49 190 0.0 1.7 0.00 0.00 0.00 69 1013.0
20260904164103 49 180 0.0 1.7 0.00 0.00 0.00 68 1013.0
20260904163603 49 236 0.0 7.0 0.00 0.00 0.00 68 1013.0
20260904163103 49 204 0.0 1.7 0.00 0.00 0.00 68 1012.9
20260904162103 49 244 0.0 2.6 0.00 0.00 0.00 69 1012.8
20260904161103 49 209 0.0 0.9 0.00 0.00 0.00 71 1012.8
20260904160603 48 249 0.0 2.6 0.00 0.00 0.00 72 1012.9
20260904160103 48 239 0.0 5.2 0.00 0.00 0.00 71 1012.8
20260904155603 48 144 0.9 4.3 0.00 0.00 0.00 72 1012.8
20260904154603 48 218 0.0 0.9 0.00 0.00 0.00 73 1012.7
20260904154103 47 227 0.0 2.6 0.00 0.00 0.00 73 1012.7
20260904153603 47 155 0.0 1.7 0.00 0.00 0.00 73 1012.7
20260904153103 47 211 0.0 0.9 0.00 0.00 0.00 73 1012.7
20260904152603 47 232 0.0 0.0 0.00 0.00 0.00 73 1012.7
20260904152103 47 232 0.0 0.9 0.00 0.00 0.00 73 1012.7
20260904151604 47 234 0.0 0.9 0.00 0.00 0.00 73 1012.8
20260904151104 47 245 0.9 2.6 0.00 0.00 0.00 72 1012.7
20260904150104 48 156 0.0 1.7 0.00 0.00 0.00 72 1012.6
20260904145603 47 212 0.0 4.3 0.00 0.00 0.00 72 1012.6
20260904145104 47 154 0.0 2.6 0.00 0.00 0.00 73 1012.5
20260904144604 47 170 0.9 4.3 0.00 0.00 0.00 73 1012.5
20260904144103 47 188 0.9 4.3 0.00 0.00 0.00 74 1012.4
20260904143603 46 170 0.9 2.6 0.00 0.00 0.00 75 1012.3
20260904143104 46 160 0.9 4.3 0.00 0.00 0.00 75 1012.2
20260904142103 45 218 0.9 2.6 0.00 0.00 0.00 77 1011.9
20260904141603 45 227 0.0 1.7 0.00 0.00 0.00 78 1011.7
20260904141103 44 199 0.0 2.6 0.00 0.00 0.00 79 1011.6
20260904140604 44 198 0.0 0.9 0.00 0.00 0.00 79 1011.8
20260904140104 44 200 0.0 0.9 0.00 0.00 0.00 79 1011.9
20260904135604 44 181 0.0 2.6 0.00 0.00 0.00 80 1011.8
20260904134603 43 151 0.0 1.7 0.00 0.00 0.00 81 1011.7
20260904134103 43 196 0.0 0.9 0.00 0.00 0.00 81 1011.7
20260904133603 43 167 0.0 0.0 0.00 0.00 0.00 81 1011.7
20260904133104 43 167 0.0 0.0 0.00 0.00 0.00 81 1011.7
20260904132603 43 167 0.0 0.0 0.00 0.00 0.00 81 1011.7
20260904132104 43 167 0.0 0.0 0.00 0.00 0.00 81 1011.7
20260904131603 43 167 0.0 0.0 0.00 0.00 0.00 81 1011.6
20260904131103 43 167 0.0 0.0 0.00 0.00 0.00 80 1011.7
20260904130603 43 167 0.0 0.0 0.00 0.00 0.00 80 1011.7
20260904130103 44 167 0.0 0.0 0.00 0.00 0.00 80 1011.6
20260904125604 44 167 0.0 0.0 0.00 0.00 0.00 80 1011.4
20260904125103 44 167 0.0 0.0 0.00 0.00 0.00 80 1011.4
20260904124103 44 167 0.0 0.0 0.00 0.00 0.00 80 1011.4
20260904123603 44 167 0.0 0.0 0.00 0.00 0.00 80 1011.4
20260904123103 44 167 0.0 0.0 0.00 0.00 0.00 79 1011.4
20260904122604 44 167 0.0 0.0 0.00 0.00 0.00 79 1011.4
20260904122103 44 167 0.0 0.0 0.00 0.00 0.00 79 1011.4
20260904121603 44 167 0.0 0.0 0.00 0.00 0.00 80 1011.4
20260904121103 44 167 0.0 0.0 0.00 0.00 0.00 80 1011.4
20260904120604 44 167 0.0 0.0 0.00 0.00 0.00 79 1011.4
20260904120104 44 167 0.0 0.0 0.00 0.00 0.00 79 1011.1
20260904115603 45 167 0.0 0.0 0.00 0.00 0.00 79 1011.1
20260904115103 45 167 0.0 0.0 0.00 0.00 0.00 79 1011.2
20260904114603 45 167 0.0 0.0 0.00 0.00 0.00 79 1011.3
20260904114104 45 167 0.0 0.0 0.00 0.00 0.00 79 1011.2
20260904113604 45 167 0.0 0.0 0.00 0.00 0.00 79 1011.1
20260904113104 45 167 0.0 0.0 0.00 0.00 0.00 79 1011.0
20260904112103 45 167 0.0 0.0 0.00 0.00 0.00 78 1010.9
20260904111603 45 167 0.0 0.0 0.00 0.00 0.00 79 1010.9
20260904111104 45 167 0.0 0.0 0.00 0.00 0.00 78 1011.0
20260904105103 45 166 0.0 0.0 0.00 0.00 0.00 78 1010.7
20260904104603 45 166 0.0 0.0 0.00 0.00 0.00 78 1010.7
20260904104103 46 166 0.0 0.0 0.00 0.00 0.00 77 1010.7
20260904103604 46 166 0.0 0.0 0.00 0.00 0.00 77 1010.6
20260904103103 46 166 0.0 2.6 0.00 0.00 0.00 77 1010.7
20260904102603 46 188 0.0 0.9 0.00 0.00 0.00 77 1010.8
20260904102104 46 212 0.0 0.0 0.00 0.00 0.00 77 1010.8
20260904101603 46 212 0.0 0.9 0.00 0.00 0.00 77 1010.8
20260904101103 46 213 0.0 2.6 0.00 0.00 0.00 77 1010.8
20260904100603 46 225 0.0 0.0 0.00 0.00 0.00 77 1010.8
20260904095603 46 234 0.0 0.0 0.00 0.00 0.00 77 1010.5
20260904095103 46 234 0.9 4.3 0.00 0.00 0.00 77 1010.4
20260904094603 46 207 0.0 0.9 0.00 0.00 0.00 77 1010.5
20260904094104 46 189 0.0 1.7 0.00 0.00 0.00 77 1010.5
20260904093603 46 194 0.0 2.6 0.00 0.00 0.00 78 1010.5
20260904093103 46 191 0.0 0.0 0.00 0.00 0.00 78 1010.5
20260904092603 46 190 0.0 0.0 0.00 0.00 0.00 78 1010.6
20260904092104 46 192 0.0 1.7 0.00 0.00 0.00 77 1010.5
20260904091603 46 186 0.0 1.7 0.00 0.00 0.00 76 1010.5
20260904090103 46 223 0.0 0.9 0.00 0.00 0.00 76 1010.5
20260904085604 46 216 0.9 2.6 0.00 0.00 0.00 76 1010.5
20260904085103 46 158 0.0 2.6 0.00 0.00 0.00 76 1010.5
20260904084603 47 202 0.0 2.6 0.00 0.00 0.00 76 1010.6
20260904084104 47 196 0.0 0.0 0.00 0.00 0.00 76 1010.5
20260904083603 47 196 0.0 2.6 0.00 0.00 0.00 75 1010.5
20260904083103 47 200 0.0 0.0 0.00 0.00 0.00 76 1010.4
20260904082103 47 199 0.0 0.9 0.00 0.00 0.00 76 1010.4
20260904081604 47 196 0.0 1.7 0.00 0.00 0.00 76 1010.3
20260904081103 47 162 0.0 0.0 0.00 0.00 0.00 76 1010.3
20260904080604 47 161 0.0 0.0 0.00 0.00 0.00 76 1010.3
20260904080103 47 161 0.0 0.0 0.00 0.00 0.00 76 1010.3
20260904075604 47 161 0.0 0.0 0.00 0.00 0.00 76 1010.3
20260904074604 47 161 0.0 0.0 0.00 0.00 0.00 76 1010.2
20260904074103 47 162 0.0 0.0 0.00 0.00 0.00 76 1010.3
20260904073604 47 162 0.0 0.0 0.00 0.00 0.00 76 1010.2
20260904072605 47 161 0.0 0.0 0.00 0.00 0.00 76 1010.2
20260904072103 47 161 0.0 0.0 0.00 0.00 0.00 75 1010.1
20260904071604 47 161 0.0 0.0 0.00 0.00 0.00 75 1010.1
20260904071103 48 161 0.0 0.0 0.00 0.00 0.00 74 1010.2
20260904065604 48 161 0.0 0.0 0.00 0.00 0.00 73 1010.3
20260904065103 48 161 0.0 0.0 0.00 0.00 0.00 73 1010.2
20260904064604 49 161 0.0 0.0 0.00 0.00 0.00 72 1010.2
20260904064103 49 161 0.0 0.0 0.00 0.00 0.00 72 1010.1
20260904063603 49 161 0.0 1.7 0.00 0.00 0.00 72 1010.1
20260904063104 49 167 0.0 0.0 0.00 0.00 0.00 72 1010.1
20260904062603 49 167 0.0 0.0 0.00 0.00 0.00 72 1010.2
20260904062104 49 167 0.0 0.0 0.00 0.00 0.00 72 1010.2
20260904061103 49 167 0.0 0.0 0.00 0.00 0.00 71 1010.2
20260904060603 49 167 0.0 0.9 0.00 0.00 0.00 71 1010.3
20260904060104 49 174 0.0 0.0 0.00 0.00 0.00 71 1010.2
20260904055104 49 174 0.0 0.0 0.00 0.00 0.00 70 1010.1
20260904054603 49 174 0.0 0.9 0.00 0.00 0.00 70 1010.1
20260904054103 50 174 0.0 0.0 0.00 0.00 0.00 69 1010.2
20260904053604 50 174 0.0 0.0 0.00 0.00 0.00 69 1010.2
20260904053104 50 174 0.0 0.0 0.00 0.00 0.00 68 1010.2
20260904052603 50 174 0.0 0.0 0.00 0.00 0.00 68 1010.2
20260904052104 50 175 0.0 0.0 0.00 0.00 0.00 67 1010.2
20260904051604 50 175 0.0 0.0 0.00 0.00 0.00 67 1010.2
20260904051103 50 175 0.0 0.0 0.00 0.00 0.00 67 1010.4
20260904050103 50 173 0.0 0.0 0.00 0.00 0.00 66 1010.4
20260904045604 50 173 0.0 0.0 0.00 0.00 0.00 66 1010.3
20260904045103 50 173 0.0 0.0 0.00 0.00 0.00 65 1010.2
20260904044603 50 173 0.0 0.0 0.00 0.00 0.00 65 1010.3
20260904044104 51 173 0.0 0.0 0.00 0.00 0.00 64 1010.2
20260904043604 51 173 0.0 0.0 0.00 0.00 0.00 64 1010.2
20260904043103 51 173 0.0 0.0 0.00 0.00 0.00 64 1010.1
20260904042604 51 173 0.0 0.0 0.00 0.00 0.00 64 1010.0
20260904042103 50 173 0.0 0.0 0.00 0.00 0.00 65 1009.9
20260904041103 51 173 0.0 0.0 0.00 0.00 0.00 67 1009.9
20260904040603 51 173 0.0 0.0 0.00 0.00 0.00 66 1009.9
20260904035604 51 173 0.0 0.0 0.00 0.00 0.00 63 1009.9
20260904035103 52 173 0.0 0.0 0.00 0.00 0.00 63 1009.8
20260904034603 52 173 0.0 0.0 0.00 0.00 0.00 62 1009.7
20260904034104 52 173 0.0 0.0 0.00 0.00 0.00 61 1009.6
20260904033103 53 173 0.0 0.0 0.00 0.00 0.00 59 1009.6